Location: F�rwald
(48.6833°N, 15.5333°E)
Time: 08:02:31
(UTC+00:00)

Daily predictions for brighter satellites

Satellite Brightness Start Highest point End
(mag) Time Altitude Azimuth Time Altitude Azimuth Time Altitude Azimuth
Meteor 1-15 Rocket 4.3 17:47:04 10° S 17:52:48 89° ESE 17:58:27 10° NNE
STARLINK-1124 3.7 17:49:47 10° WNW 17:53:57 82° NNE 17:58:06 10° ESE
ARGOS 3.6 17:49:06 10° SE 17:54:11 43° ENE 17:59:15 10° N
SL-8 R/B 3.7 17:49:44 10° WSW 17:54:32 81° S 17:59:19 10° E
SeaSat 1 3.1 17:49:44 10° NNE 17:54:37 61° NW 17:59:28 10° SW
STARLINK-1128 4.3 17:52:00 10° WNW 17:56:01 48° N 18:00:03 10° E
STARLINK-1066 3.1 17:53:22 10° WNW 17:56:32 71° SSW 17:59:41 10° SE
STARLINK-1143 4.4 17:53:11 10° SSW 17:56:49 33° SE 18:00:28 10° ENE
STARLINK-1081 3.0 17:53:51 10° WNW 17:56:58 70° SSW 18:00:04 10° SE
STARLINK-1209 2.8 17:54:28 10° SW 17:57:19 54° SSE 18:00:10 10° ENE
STARLINK-1070 3.1 17:54:18 10° WNW 17:57:25 70° SSW 18:00:31 10° SE
STARLINK-1069 3.1 17:54:42 10° WNW 17:57:50 69° SSW 18:00:58 10° SE
STARLINK-1110 3.6 17:53:48 10° WNW 17:57:51 85° NNE 18:01:53 10° ESE
STARLINK-1228 2.8 17:55:20 10° SW 17:58:09 55° SSE 18:00:58 10° ENE
STARLINK-1085 3.1 17:55:09 10° WNW 17:58:18 69° SSW 18:01:26 10° SE
STARLINK-1086 3.1 17:55:40 10° WNW 17:58:46 68° SSW 18:01:51 10° SE
CZ-4 R/B 3.3 17:55:32 10° SSW 17:59:03 32° W 18:02:34 10° NNW
STARLINK-1095 3.1 17:56:06 10° WNW 17:59:13 67° SSW 18:02:18 10° SE
STARLINK-1077 3.1 17:56:32 10° WNW 17:59:39 67° SSW 18:02:45 10° SE
STARLINK-1075 3.1 17:57:00 10° WNW 18:00:07 66° SSW 18:03:12 10° SE
STARLINK-1093 3.1 17:57:25 10° WNW 18:00:33 66° SSW 18:03:41 10° SE
STARLINK-1074 3.1 17:57:52 10° WNW 18:01:00 66° SSW 18:04:07 10° SE
STARLINK-1113 4.2 17:56:59 10° WNW 18:01:01 49° N 18:05:03 10° E
STARLINK-1087 3.1 17:58:21 10° WNW 18:01:28 65° SSW 18:04:33 10° SE
STARLINK-1088 3.1 17:58:48 10° WNW 18:01:55 64° SSW 18:05:00 10° SE
STARLINK-1115 3.2 17:59:13 10° WNW 18:02:21 64° SSW 18:05:29 10° SE
STARLINK-1076 3.2 17:59:39 10° WNW 18:02:48 64° SSW 18:05:55 10° SE
STARLINK-1092 3.2 18:00:08 10° WNW 18:03:16 63° SSW 18:06:23 10° SE
PKM 4.3 17:59:58 10° WSW 18:03:24 76° NNW 18:09:01 10° ENE
STARLINK-1080 3.2 18:00:37 10° WNW 18:03:43 62° SSW 18:06:48 10° SE
Cosmos 1271 Rocket 4.4 18:00:37 10° NNW 18:04:07 37° W 18:07:35 10° SSW
STARLINK-1090 3.2 18:01:03 10° WNW 18:04:09 62° SSW 18:07:14 10° SE
STARLINK-1089 3.2 18:01:31 10° WNW 18:04:37 61° SSW 18:07:41 10° SE
STARLINK-1107 3.2 18:01:57 10° WNW 18:05:03 61° SSW 18:08:08 10° SE
STARLINK-1119 4.2 18:01:57 10° WNW 18:06:01 50° N 18:10:03 10° E
Cosmos 1470 4.0 18:03:18 10° SE 18:06:18 22° E 18:09:20 10° NE
NOSS 2-1 (C) 3.5 18:03:28 10° SW 18:06:49 62° NW 18:10:34 10° NE
STARLINK-1122 3.6 18:02:56 10° WNW 18:06:59 86° SSW 18:10:59 10° ESE
STARLINK-1241 4.1 18:03:36 10° SSW 18:07:19 38° SE 18:11:04 10° ENE
SL-08 RB Rocket 4.3 18:04:27 10° SE 18:08:36 37° ENE 18:12:50 10° N
ATLAS CENTAUR R/B 4.1 18:05:51 10° WNW 18:08:43 17° NNW 18:11:30 10° NNE
STARLINK-1233 3.0 18:07:41 10° SW 18:10:45 55° SSE 18:13:50 10° ENE
NOSS 2-1 (D) 3.7 18:07:42 10° SW 18:11:02 56° NW 18:14:46 10° NE
STARLINK-1114 4.2 18:06:58 10° WNW 18:11:02 51° NNE 18:14:57 11° E
IRS-1A Rocket 4.3 18:05:27 10° SSE 18:11:05 77° ENE 18:16:52 10° NNW
STARLINK-1212 3.0 18:08:09 10° SW 18:11:12 55° SSE 18:14:17 10° ENE
COSMOS 2428 4.1 18:05:59 10° SW 18:11:25 43° NW 18:16:52 10° NNE
Cosmos 2369 Rocket 3.4 18:06:45 10° NNW 18:11:34 27° NE 18:16:01 11° E
STARLINK-1126 3.6 18:07:33 10° WNW 18:11:37 82° SSW 18:15:25 11° ESE
STARLINK-1105 3.0 18:08:35 10° SW 18:11:39 56° SSE 18:14:46 10° ENE
STARLINK-1239 4.0 18:08:06 10° SSW 18:11:53 41° SE 18:15:41 10° ENE
ISS -3.1 18:08:44 10° WNW 18:12:01 49° N 18:15:13 11° E
SJ-6B 3.3 18:08:14 10° SE 18:12:06 45° ENE 18:16:03 10° N
STARLINK-1206 3.0 18:09:04 10° SW 18:12:07 56° SSE 18:15:12 10° ENE
Cosmos 304 Rocket 3.8 18:07:41 10° NNW 18:12:31 87° ENE 18:17:18 10° SSE
STARLINK-1247 3.0 18:09:30 10° SW 18:12:34 57° SSE 18:15:39 10° ENE
STARLINK-1227 3.0 18:09:55 10° SW 18:12:59 57° SSE 18:16:05 10° ENE
CZ-2C R/B 3.0 18:08:12 10° SSE 18:13:11 61° ENE 18:17:58 10° N
STARLINK-1218 2.9 18:10:24 10° SW 18:13:28 57° SSE 18:16:33 10° ENE
Cosmos 1758 4.4 18:10:24 10° SE 18:13:46 25° E 18:17:10 10° NNE
STARLINK-1226 2.9 18:10:51 10° SW 18:13:56 58° SSE 18:17:01 10° ENE
STARLINK-1254 2.9 18:11:15 10° SW 18:14:20 59° SSE 18:17:26 10° ENE
STARLINK-1215 2.9 18:11:45 10° SW 18:14:49 59° SSE 18:17:54 10° ENE
STARLINK-1231 2.9 18:12:11 10° SW 18:15:15 59° SSE 18:18:20 10° ENE
Cosmos 1048 Rocket 4.2 18:10:49 10° SSW 18:15:56 77° WNW 18:21:10 10° NNE
STARLINK-1130 (DARKSAT) 4.1 18:11:56 10° WNW 18:16:01 52° NNE 18:19:43 12° E
STARLINK-1082 3.6 18:12:07 10° WNW 18:16:10 78° SSW 18:19:48 12° ESE
STARLINK-1232 2.9 18:13:06 10° SW 18:16:10 60° SSE 18:19:15 10° ENE
STARLINK-1240 3.9 18:12:38 10° SW 18:16:27 44° SE 18:20:18 10° ENE
STARLINK-1217 2.9 18:13:32 10° SW 18:16:37 61° SSE 18:19:43 10° ENE
STARLINK-1208 2.9 18:13:58 10° SW 18:17:03 62° SSE 18:20:10 10° ENE
Meteor 2-8 Rocket 4.4 18:10:58 10° S 18:17:03 66° E 18:23:09 10° NNE
STARLINK-1229 2.9 18:14:26 10° SW 18:17:30 62° SSE 18:20:36 10° ENE
Meteor 1-22 Rocket 4.0 18:12:37 10° S 18:17:51 67° E 18:23:06 10° NNE
STARLINK-1271 2.9 18:14:53 10° SW 18:17:59 62° SSE 18:21:04 10° ENE
STARLINK-1270 2.9 18:15:21 10° SW 18:18:25 63° SSE 18:21:32 10° ENE
Resurs 01 Rocket 2.9 18:15:31 12° ESE 18:18:35 23° ENE 18:22:02 10° NNE
STARLINK-1154 2.9 18:15:47 10° SW 18:18:52 63° SSE 18:21:56 10° ENE
STARLINK-1197 2.8 18:16:41 10° SW 18:19:45 64° SSE 18:22:49 10° ENE
STARLINK-1189 2.8 18:17:08 10° SW 18:20:13 65° SSE 18:23:15 10° ENE
STARLINK-1100 3.7 18:16:41 10° WNW 18:20:43 74° SSW 18:24:11 14° SE
STARLINK-1084 4.1 18:16:55 10° WNW 18:21:00 54° NNE 18:24:30 14° E
STARLINK-1216 3.8 18:17:12 10° SW 18:21:04 47° SE 18:24:56 10° ENE
STARLINK-1187 2.8 18:17:57 10° SW 18:21:04 73° SSE 18:24:10 10° ENE
STARLINK-1188 2.8 18:18:02 10° SW 18:21:07 66° SSE 18:24:07 11° ENE
STARLINK-1198 2.8 18:18:16 10° SW 18:21:22 66° SSE 18:24:21 11° ENE
STARLINK-1235 2.8 18:18:37 10° WSW 18:21:45 81° SSE 18:24:55 10° ENE
Cosmos 494 Rocket 3.9 18:17:07 10° SSW 18:22:15 75° ESE 18:27:28 10° NNE
USA 81 4.2 18:17:02 10° N 18:22:20 81° W 18:27:36 10° S
Cosmos 1733 3.1 18:19:18 10° S 18:23:03 78° E 18:26:51 10° NNE
STARLINK-1199 2.8 18:19:57 10° SW 18:23:04 68° SSE 18:26:02 11° ENE
STARLINK-1191 2.8 18:20:25 10° SW 18:23:31 69° SSE 18:26:29 11° ENE
CZ-4C R/B 4.2 18:19:00 10° W 18:23:50 28° NNW 18:29:26 10° NE
STARLINK-1210 2.8 18:20:51 10° SW 18:23:58 69° SSE 18:26:54 11° ENE
STARLINK-1221 2.8 18:21:18 10° SW 18:24:26 70° SSE 18:27:22 11° ENE
STARLINK-1219 2.8 18:21:45 10° SW 18:24:52 70° SSE 18:27:47 12° ENE
FREGAT/IRIS 2.2 18:22:26 10° SSE 18:25:08 84° E 18:27:53 10° N
STARLINK-67 2.6 18:22:42 10° WSW 18:25:16 67° NNW 18:27:36 12° ENE
Cosmos 1709 Rocket 4.0 18:19:03 10° N 18:25:18 68° ENE 18:31:24 10° SSE
STARLINK-1083 3.7 18:21:17 10° WNW 18:25:19 70° SSW 18:28:36 15° SE
STARLINK-1222 2.8 18:22:12 10° SW 18:25:19 71° SSE 18:28:12 12° ENE
STARLINK-1237 3.8 18:21:48 10° SW 18:25:41 50° SE 18:29:33 10° ENE
STARLINK-1211 2.8 18:22:39 10° SW 18:25:46 72° SSE 18:28:38 12° ENE
SPOT 3 Rocket 3.9 18:20:58 10° SE 18:25:58 49° ENE 18:30:59 10° N
STARLINK-1098 4.0 18:21:54 10° WNW 18:25:59 56° NNE 18:29:16 15° E
STARLINK-1214 2.8 18:23:07 10° SW 18:26:13 72° SSE 18:29:05 12° ENE
STARLINK-1245 2.8 18:23:36 10° SW 18:26:42 73° SSE 18:29:30 12° ENE
Cosmos 1331 Rocket 4.2 18:21:41 10° NNW 18:26:53 74° WSW 18:31:59 10° SSE
STARLINK-1238 2.8 18:24:01 10° SW 18:27:08 73° SSE 18:29:57 12° ENE
Cosmos 1674 4.2 18:24:17 10° NNW 18:27:50 39° W 18:31:20 10° SSW
STARLINK-1205 2.8 18:24:57 10° WSW 18:28:03 74° SSE 18:30:49 13° ENE
STARLINK-1204 2.8 18:25:23 10° WSW 18:28:29 75° SSE 18:31:13 13° ENE
Cosmos 2219 Rocket 4.2 18:24:44 10° WSW 18:29:45 31° NW 18:34:46 10° NNE
SL-14 R/B 3.2 18:25:41 10° N 18:29:46 77° E 18:33:47 10° SSE
STARLINK-1125 3.8 18:25:54 10° WNW 18:29:55 66° SSW 18:33:02 16° SE
STARLINK-1202 3.7 18:26:22 10° SW 18:30:17 54° SSE 18:33:59 11° ENE
STARLINK-1123 4.0 18:26:54 10° WNW 18:31:01 58° NNE 18:34:05 17° E
Cosmos 1726 4.0 18:32:04 14° E 18:32:04 14° E 18:33:48 10° NE
MOS 1 Rocket 4.4 18:29:05 10° NNE 18:33:37 29° E 18:38:15 10° SSE
STARLINK-1109 3.8 18:30:12 10° WNW 18:34:11 62° SSW 18:37:10 17° SE
STARLINK-1246 3.6 18:31:17 10° SW 18:35:16 58° SSE 18:38:50 13° ENE
STARLINK-1097 3.9 18:31:52 10° WNW 18:35:59 60° NNE 18:38:50 19° E
MONITOR-E 4.1 18:34:39 10° S 18:37:16 66° WSW 18:39:55 10° NNW
Cosmos 1943 Rocket 2.6 18:32:10 10° NNW 18:37:28 45° NE 18:41:19 18° ESE
Cosmos 1766 4.3 18:34:57 10° SSW 18:38:50 50° WNW 18:42:44 10° N
STARLINK-1091 3.9 18:34:52 10° WNW 18:38:52 58° SSW 18:41:39 18° SE
Cosmos 1980 4.5 18:33:25 10° SW 18:39:00 56° WNW 18:44:38 10° NNE
STARLINK-1099 3.9 18:36:52 10° WNW 18:40:59 62° NNE 18:43:38 21° E
Ariane Rocket 3.6 18:36:53 10° S 18:41:53 58° WSW 18:46:54 10° NNW
STARLINK-1224 3.5 18:40:13 10° SW 18:44:12 66° SSE 18:47:23 16° ENE
Cosmos 1455 Rocket 3.5 18:41:27 10° SSW 18:45:46 66° WNW 18:50:07 10° N
STARLINK-1104 3.8 18:41:52 10° WNW 18:46:00 65° NNE 18:48:25 23° E
TSX-5 4.2 18:42:45 10° NNW 18:48:24 82° ENE 18:51:27 20° SE
STARLINK-1225 3.5 18:44:53 10° SW 18:48:54 70° SSE 18:51:55 17° ENE
STARLINK-1203 3.4 18:46:54 10° WSW 18:50:50 76° SSE 18:53:42 18° ENE
STARLINK-1144 3.7 18:46:49 10° WNW 18:50:58 67° NNE 18:53:11 26° E
STARLINK-1072 4.2 18:48:06 10° WNW 18:51:58 47° SW 18:54:14 22° SSE
SL-16 R/B 2.1 18:46:41 10° SSW 18:52:20 75° ESE 18:58:00 10° NNE
Cosmos 1626 Rocket 3.5 18:48:17 10° N 18:52:43 88° ENE 18:57:05 10° S
STARLINK-1230 3.4 18:49:31 10° SW 18:53:32 75° SSE 18:56:22 19° ENE
USA 186 3.2 18:51:07 10° S 18:54:24 42° W 18:57:39 10° NNW
Spot 2 Rocket 4.4 18:52:55 22° ESE 18:55:03 31° ENE 18:59:30 10° N
Cosmos 1626 2.8 18:51:58 10° NNW 18:55:37 55° W 18:59:12 10° S
Cosmos 1953 2.8 18:53:53 24° SE 18:55:39 37° E 18:59:20 10° NNE
STARLINK-1103 3.7 18:51:48 10° WNW 18:55:56 70° NNE 18:57:58 29° E
STARLINK-1096 4.3 18:52:35 10° WNW 18:56:24 44° SW 18:58:31 23° SSE
Cosmos 2084 Rocket 3.8 18:52:15 10° NW 18:56:40 54° NE 18:58:46 28° ESE
Cosmos 1437 4.2 18:54:21 10° NNE 18:56:21 21° NE 18:56:21 21° NE
STARLINK-1234 3.2 18:53:52 10° W 18:56:50 59° NNW 18:58:24 24° NE
STARLINK-1243 3.4 18:54:11 10° WSW 18:58:13 79° SSE 19:00:53 21° ENE
Cosmos 1602 Rocket 3.5 18:55:47 10° N 19:00:17 83° E 19:03:54 15° SSE
Aureole 3 3.7 18:57:25 14° SSE 19:00:46 54° E 19:05:44 10° NNE
STARLINK-1079 4.4 18:57:05 10° WNW 19:00:51 41° SW 19:02:49 23° SSE
STARLINK-1101 3.6 18:56:48 10° WNW 19:00:56 74° NNE 19:02:46 32° E
STARLINK-1236 3.4 18:58:50 10° WSW 19:02:53 83° SSE 19:05:22 22° ENE
DMSP B5D2-2 4.1 19:00:17 10° NNE 19:05:27 59° E 19:10:35 10° S
ATLAS 2AS CENTAUR R/B 3.7 18:58:25 10° NW 19:05:39 39° NNE 19:10:16 20° E
STARLINK-1102 3.6 19:01:46 10° WNW 19:05:55 77° NNE 19:07:32 36° ESE
H-2A R/B 3.2 19:01:13 10° S 19:06:18 44° W 19:11:17 10° NNW
Aureole 2 Rocket 2.7 19:06:41 10° NNW 19:10:06 47° ENE 19:10:31 44° E
STARLINK-1111 3.6 19:06:44 10° WNW 19:10:54 81° NNE 19:12:19 40° ESE
Terra 3.7 19:10:44 14° ENE 19:11:11 14° NE 19:13:38 10° NNE
STARLINK-1269 3.5 19:08:14 10° WSW 19:12:17 88° NNW 19:14:26 27° ENE
USA 234 3.2 19:07:07 10° ENE 19:13:41 75° SE 19:20:13 10° SW
Cosmos 1603 4.2 19:12:01 26° SE 19:14:10 34° ESE 19:19:12 10° NE
ERBS 4.3 19:11:27 10° WNW 19:14:22 26° NNW 19:16:57 12° NE
Meteor 1-16 Rocket 4.4 19:12:24 28° SE 19:14:39 42° E 19:19:46 10° NNE
CZ-2C R/B 3.8 19:10:15 10° NNE 19:15:02 83° WNW 19:19:45 10° SSW
STARLINK-1073 3.5 19:11:43 10° WNW 19:15:53 85° NNE 19:17:06 45° ESE
STARLINK-1200 3.5 19:12:56 10° WSW 19:16:59 84° NNW 19:18:56 30° ENE
Cosmos 1703 4.0 19:14:12 10° N 19:17:46 35° ENE 19:17:46 35° ENE
Cosmos 1825 Rocket 3.7 19:15:19 10° N 19:19:41 53° ENE 19:20:40 43° ESE
STARLINK-1121 3.5 19:16:43 10° WNW 19:20:52 89° N 19:21:53 51° ESE
STARLINK-1192 3.6 19:17:35 10° WSW 19:21:38 80° NNW 19:23:24 32° ENE
MetOp-B 4.3 19:19:53 34° SE 19:22:03 57° ENE 19:27:18 10° N
Cosmos 2237 Rocket 4.0 19:18:02 10° WSW 19:23:02 32° NW 19:28:04 10° NNE
COSMOS 2455 4.4 19:20:28 10° NNW 19:25:16 24° NNE 19:28:01 18° ENE
STARLINK-1106 3.5 19:21:40 10° WNW 19:25:50 86° SSW 19:26:39 57° ESE
STARLINK-1244 3.6 19:22:23 10° WSW 19:26:27 76° NNW 19:28:01 36° ENE
STARLINK-1201 3.6 19:23:37 10° W 19:26:50 53° NNW 19:27:31 43° NNE
CZ-2C R/B 2.4 19:21:54 10° NNE 19:27:07 76° ESE 19:32:16 10° S
Cosmos 2184 Rocket 3.9 19:22:06 10° N 19:28:28 79° E 19:32:14 26° SSE
Cosmos 1992 Rocket 3.9 19:23:16 10° NNW 19:28:32 83° ENE 19:30:33 38° SSE
Cosmos 1758 Rocket 3.4 19:24:34 10° N 19:28:58 78° E 19:30:09 48° SSE
STARLINK-1112 3.5 19:26:40 10° WNW 19:30:50 82° SSW 19:31:27 63° SE
STARLINK-1138 3.7 19:27:05 10° WSW 19:31:09 73° NNW 19:32:32 39° NE
STARLINK-1209 3.8 19:29:27 10° W 19:32:13 39° NNW 19:32:14 39° NNW
STARLINK-1228 3.9 19:30:26 10° W 19:33:08 39° NNW 19:33:08 39° NNW
Cosmos 1953 Rocket 3.7 19:30:56 10° N 19:35:18 53° ENE 19:35:31 52° E
STARLINK-1128 3.5 19:31:40 10° WNW 19:35:49 77° SSW 19:36:15 67° SSE
STARLINK-1143 3.7 19:31:53 10° WSW 19:35:55 70° NNW 19:37:08 43° NE
Cosmos 2251 Rocket 3.4 19:31:12 10° S 19:36:31 69° ESE 19:41:53 10° NNE
SL-8 R/B 3.6 19:32:17 10° W 19:37:05 81° S 19:38:02 57° ESE
Cosmos 1656 Rocket 4.0 19:34:24 10° NNW 19:39:58 51° NE 19:41:14 43° E
STARLINK-1113 3.5 19:36:39 10° WNW 19:40:47 73° SSW 19:41:02 70° S
Cosmos 1606 Rocket 3.5 19:43:16 63° E 19:43:16 63° E 19:47:34 10° NNE
STARLINK-1119 3.6 19:41:37 10° WNW 19:45:45 68° SSW 19:45:48 68° SSW
STARLINK-1241 3.9 19:42:23 10° W 19:46:23 63° NNW 19:47:06 52° NNE
STARLINK-1233 4.1 19:43:38 10° W 19:46:21 41° NNW 19:46:21 41° NNW
STARLINK-1212 4.1 19:44:06 10° W 19:46:46 40° NNW 19:46:46 40° NNW
STARLINK-1105 4.1 19:44:33 10° W 19:47:14 40° NNW 19:47:14 40° NNW
STARLINK-1206 4.2 19:45:03 10° W 19:47:38 39° NW 19:47:38 39° NW
STARLINK-1247 4.2 19:45:29 10° W 19:48:03 39° NW 19:48:03 39° NW
STARLINK-1227 4.2 19:45:53 10° W 19:48:30 39° NW 19:48:30 39° NW
ERS-1 Rocket 3.4 19:48:48 43° ENE 19:48:58 43° ENE 19:53:43 10° N
ISS -2.9 19:45:37 10° WNW 19:48:11 48° W 19:48:11 48° W
STARLINK-1218 4.3 19:46:23 10° W 19:48:55 38° NW 19:48:55 38° NW
Cosmos 2154 Rocket 3.9 19:43:00 10° N 19:49:23 74° E 19:51:32 44° SSE
STARLINK-1226 4.3 19:46:51 10° W 19:49:23 38° NW 19:49:23 38° NW
STARLINK-1254 4.3 19:47:15 10° W 19:49:48 38° NW 19:49:48 38° NW
STARLINK-1114 3.8 19:46:38 10° WNW 19:50:36 63° SW 19:50:36 63° SW
STARLINK-1215 4.3 19:47:46 10° W 19:50:14 37° NW 19:50:14 37° NW
STARLINK-1239 3.9 19:47:00 10° W 19:50:59 61° NNW 19:51:30 55° NNE
USA 245 3.9 19:50:07 58° SE 19:51:05 77° ENE 19:56:53 10° NNW
STARLINK-1231 4.3 19:48:12 10° W 19:50:39 37° NW 19:50:39 37° NW
STARLINK-1232 4.4 19:49:07 10° W 19:51:32 36° NW 19:51:32 36° NW
STARLINK-1217 4.4 19:49:34 10° W 19:51:58 36° NW 19:51:58 36° NW
STARLINK-1208 4.4 19:49:58 10° W 19:52:25 36° NW 19:52:25 36° NW
STARLINK-1229 4.5 19:50:28 10° W 19:52:49 35° NW 19:52:49 35° NW
BREEZE-M DEB (TANK) 3.6 19:48:30 10° WNW 19:53:10 59° WSW 19:53:10 59° WSW
STARLINK-1271 4.5 19:50:56 10° W 19:53:16 35° NW 19:53:16 35° NW
BREEZE M DEB (TANK) 4.3 19:46:58 10° SW 19:53:49 37° S 19:53:49 37° S
Resurs 01 Rocket 2.5 19:53:05 30° SSW 19:54:49 45° W 19:59:05 10° NNW
SPOT 5 3.6 19:56:05 35° NE 19:56:05 35° NE 19:59:25 10° N
STARLINK-1240 3.9 19:51:37 10° W 19:55:36 59° NNW 19:55:56 56° N
STARLINK-1130 (DARKSAT) 3.9 19:51:36 10° WNW 19:55:22 57° SW 19:55:22 57° SW
Cosmos 2369 Rocket 2.4 19:50:25 10° NNW 19:56:07 68° WSW 19:57:50 44° S
Cosmos 2263 4.1 19:54:13 10° NNW 19:59:52 84° WSW 20:01:00 58° SSE
STARLINK-1216 4.0 19:56:16 10° W 20:00:14 57° NNW 20:00:23 56° N
STARLINK-1084 4.2 19:56:35 10° WNW 20:00:09 51° WSW 20:00:09 51° WSW
Cosmos 967 Rocket 4.4 19:55:06 10° SSW 20:01:27 64° ESE 20:07:52 10° NE
STARLINK-1237 4.1 20:00:57 10° W 20:04:52 55° NNW 20:04:52 55° NNW
Cosmos 962 Rocket 4.4 19:59:19 10° N 20:05:30 62° ENE 20:06:15 58° ESE
STARLINK-1098 4.4 20:01:34 10° WNW 20:04:55 46° WSW 20:04:55 46° WSW
Cosmos 1726 3.0 20:06:30 47° WNW 20:06:31 47° WNW 20:10:11 10° N
Landsat 7 3.7 20:06:34 85° E 20:06:37 85° ENE 20:11:25 10° NNW
Nadezhda 1 Rocket 4.0 20:06:17 34° S 20:09:18 89° WNW 20:15:44 10° N
STARLINK-1202 4.2 20:05:36 10° W 20:09:18 52° NNW 20:09:18 52° NNW
Cosmos 921 Rocket 4.4 20:06:46 10° N 20:09:20 28° NNE 20:09:20 28° NNE
Cosmos 2228 3.2 20:11:03 67° NW 20:11:03 67° NW 20:14:59 10° N
SL-8 Rocket 4.3 20:05:39 10° N 20:11:44 48° ENE 20:11:56 48° E
STARLINK-1246 4.4 20:10:44 10° W 20:14:18 49° NW 20:14:18 49° NW
Cosmos 2366 rocket 4.4 20:13:00 10° N 20:18:37 43° ENE 20:18:37 43° ENE
Cosmos 1943 3.0 20:19:28 79° SSE 20:19:47 83° ESE 20:25:30 10° NNE
Cosmos 1943 Rocket 3.4 20:16:10 10° NW 20:21:06 34° WSW 20:22:51 27° SW
Cosmos 2058 Rocket 4.0 20:24:10 42° NNE 20:24:10 42° NNE 20:27:12 10° N
NOSS 3-4 (A) 3.8 20:17:40 10° NW 20:24:33 71° NE 20:25:57 58° ESE
NOSS 3-4 (C) 3.8 20:17:46 10° NW 20:24:39 71° NE 20:26:03 58° E
SPOT 1/Viking Rocket 3.7 20:32:06 68° WSW 20:32:09 68° WSW 20:37:23 10° NNW
Spot 2 Rocket 4.4 20:33:06 40° WSW 20:33:52 43° W 20:38:45 10° NNW
NOSS 3-3 (A) 3.9 20:28:30 10° SW 20:34:26 82° NW 20:41:13 10° NE
NOSS 3-3 (C) 3.9 20:28:36 10° SW 20:34:32 83° NW 20:41:19 10° NE
SL-16 R/B 4.4 20:32:27 10° W 20:37:03 25° NW 20:41:40 10° N
Terra 2.7 20:49:36 47° NNW 20:49:36 47° NNW 20:53:01 10° NNW
Cosmos 2341 Rocket 4.1 20:47:06 10° NNW 20:53:25 68° W 20:53:51 66° WSW
USA 234 3.8 20:50:14 10° NE 20:56:34 54° NNW 21:02:54 10° W
ATLAS 2AS CENTAUR R/B 2.7 20:49:43 10° NW 20:57:22 79° SW 20:57:41 77° SSW
Cosmos 1980 Rocket 4.4 21:04:58 10° N 21:08:13 15° NE 21:09:08 15° NE
Aureole 1 Rocket 4.4 21:07:14 54° SW 21:09:05 74° WNW 21:15:38 10° NNE
COSMOS 2455 3.2 21:06:05 10° NNW 21:11:09 62° NNW 21:11:09 62° NNW
Cosmos 2218 Rocket 4.3 21:16:00 10° NNW 21:21:25 61° WNW 21:21:25 61° WNW
ATLAS CENTAUR R/B 4.3 21:28:19 10° N 21:29:15 12° N 21:29:15 12° N
Cosmos 2181 Rocket 4.5 21:33:10 55° WNW 21:33:10 55° WNW 21:38:56 10° N
CZ-4C R/B 3.9 21:58:46 10° NW 22:04:59 37° NNE 22:06:32 34° NE
Mayak 1.6 22:06:00 10° N 22:06:55 15° N 22:06:55 15° N
Cosmos 1697 Rocket 4.2 22:22:53 10° NNW 22:26:03 34° NNW 22:26:03 34° NNW
SL-16 R/B 4.3 22:25:08 10° N 22:29:03 19° NE 22:29:36 18° NE
USA 234 4.2 22:32:51 10° ENE 22:38:57 43° N 22:45:03 10° WNW
Cosmos 2322 Rocket 4.3 22:40:06 10° N 22:44:09 20° NE 22:44:37 19° NE
Cosmos 1980 Rocket 3.8 22:47:57 10° NNW 22:50:55 31° N 22:50:55 31° N
Cosmos 2082 Rocket 4.0 23:15:19 25° NE 23:15:19 25° NE 23:17:39 10° NE
SL-16 R/B 3.9 23:21:37 32° ENE 23:21:37 32° ENE 23:26:56 10° N
ATLAS 5 CENTAUR R/B 4.1 23:39:11 21° N 23:39:11 21° N 23:41:51 10° NNE
Cosmos 1833 Rocket 4.1 23:45:10 34° N 23:45:10 34° N 23:48:25 10° NNE
